Find Starlink 36401

NORAD ID: 67696 Int'l Des: 2026-025 Owner: SPXS Country: US Constellation: starlink operational
LEOCIRCULARRETROGRADE

現在のビュー

3D地球を読み込み中...

Starlink 36401について

説明を読み込み中...

次回通過

Passes for default location (London). Set your location on the main map for personalized predictions.

高度履歴

Loading altitude history...

軌道要素

1 67696U 26025D 26149.79730994 .00024693 00000-0 76466-3 0 9995
2 67696 97.2878 261.3594 0000104 199.5056 160.6183 15.33446757 18444
Epoch: May 29, 2026 • Age: 20 hours

現在のステータス

高度 484.0 km
速度 7.62 km/s
衛星直下点 -47.86°S, 37.85°W
打ち上げ日 Feb 7, 2026
運用期間 0.3 years
タイプ internet

技術仕様

分類 Payload
質量 575.00 kg
乾燥質量 530.00 kg
総質量 575.00 kg
長さ 0.30 m
直径 4.10 m
スパン 29.00 m
形状 Box + pan
製造者 SPXS
バスタイプ Starlink V2MO
フェーズステータス In Orbit
所有者/国 SPXS/US

Most Searched